Weather History for Hoonah, AK

Change the Weather History Date:

Friday, October 18, 2013

  Actual Average Record
Temperature  
Mean Temperature 44 °F -  
Max Temperature 47 °F 44 °F 52 °F (2010)
Min Temperature 42 °F 37 °F 26 °F (2004)
Degree Days  
Heating Degree Days 20    
Moisture  
Dew Point 45 °F    
Average Humidity 98    
Maximum Humidity 100    
Minimum Humidity 93    
Precipitation  
Precipitation 0.05 in - - ()
Sea Level Pressure  
Sea Level Pressure 30.25 in    
Wind  
Wind Speed 2 mph (East)    
Max Wind Speed 8 mph    
Max Gust Speed -    
Visibility 9 miles    
Events Rain    
Averages and records for this station are not official NWS values.
T = Trace of Precipitation, MM = Missing Value Source: NWS Daily Summary

Daily Weather History Graph

Daily Weather History Graph

Search for Another Location

Airport:

Trip Planner

Search our weather history database for the weather conditions in past years. The results will help you decide how hot, cold, wet, or windy it might be!

Date:

Astronomy

Oct. 18, 2013 Rise Set
Actual Time 7:44 AM AKDT 5:47 PM AKDT
Civil Twilight 7:04 AM AKDT 6:27 PM AKDT
Nautical Twilight 6:18 AM AKDT 7:13 PM AKDT
Astronomical Twilight 5:33 AM AKDT 7:59 PM AKDT
Moon 5:35 PM AKDT (10/18) 7:30 AM AKDT (10/18)
Length of Visible Light 11h 23m
Length of Day
10h 02m
Full, 100% of the Moon is Illuminated
Oct 18
Full
Oct 18
Full
Oct 26
Last Quarter
Nov 3
New
Nov 9
First Quarter

Hourly Weather History & Observations

Time (AKDT) Temp. Windchill Dew Point Humidity Pressure Visibility Wind Dir Wind Speed Gust Speed Precip Events Conditions
12:56 AM 43.9 °F 40.5 °F 43.0 °F 97% 30.32 in 10.0 mi SSE 5.8 mph - N/A   Overcast
1:35 AM 44.6 °F - 44.6 °F 100% 30.32 in 10.0 mi Calm Calm - N/A   Overcast
1:56 AM 43.9 °F - 43.0 °F 97% 30.32 in 10.0 mi Calm Calm - N/A   Overcast
2:56 AM 43.9 °F - 43.9 °F 100% 30.33 in 10.0 mi Calm Calm - N/A   Overcast
3:13 AM 42.8 °F - 42.8 °F 100% 30.32 in 10.0 mi Calm Calm - N/A   Overcast
3:56 AM 43.0 °F - 43.0 °F 100% 30.32 in 10.0 mi Calm Calm - N/A   Overcast
4:24 AM 42.8 °F - 42.8 °F 100% 30.31 in 10.0 mi Calm Calm - N/A   Overcast
4:43 AM 42.8 °F - 42.8 °F 100% 30.30 in 10.0 mi Calm Calm - N/A   Overcast
4:56 AM 43.0 °F - 43.0 °F 100% 30.30 in 10.0 mi Calm Calm - N/A   Overcast
5:56 AM 43.9 °F 41.3 °F 43.9 °F 100% 30.29 in 10.0 mi ENE 4.6 mph - N/A   Overcast
6:41 AM 44.6 °F - 44.6 °F 100% 30.28 in 10.0 mi Calm Calm - N/A   Overcast
6:56 AM 43.9 °F - 43.9 °F 100% 30.29 in 10.0 mi Calm Calm - N/A   Overcast
7:56 AM 43.9 °F - 43.9 °F 100% 30.27 in 10.0 mi Calm Calm - N/A   Overcast
8:56 AM 43.9 °F - 43.9 °F 100% 30.26 in 10.0 mi Calm Calm - 0.00 in   Overcast
9:56 AM 45.0 °F - 45.0 °F 100% 30.26 in 8.0 mi Calm Calm - 0.00 in   Overcast
10:56 AM 45.0 °F - 45.0 °F 100% 30.27 in 4.0 mi Calm Calm - 0.00 in Rain Light Rain
11:42 AM 46.4 °F 45.2 °F 44.6 °F 93% 30.26 in 7.0 mi ENE 3.5 mph - 0.01 in Rain Light Rain
11:56 AM 45.9 °F 44.6 °F 45.0 °F 97% 30.26 in 10.0 mi Variable 3.5 mph - 0.01 in   Overcast
12:56 PM 46.4 °F 44.3 °F 44.6 °F 93% 30.25 in 8.0 mi East 4.6 mph - N/A Rain Light Rain
1:37 PM 46.4 °F - 44.6 °F 93% 30.25 in 10.0 mi Calm Calm - 0.00 in   Overcast
1:56 PM 46.9 °F - 45.0 °F 93% 30.25 in 10.0 mi ESE 3.5 mph - 0.01 in   Overcast
2:56 PM 47.8 °F - 45.9 °F 93% 30.24 in 10.0 mi Calm Calm - N/A   Overcast
3:56 PM 46.9 °F - 46.9 °F 100% 30.23 in 7.0 mi East 4.6 mph - N/A   Overcast
4:56 PM 47.8 °F - 45.9 °F 93% 30.21 in 10.0 mi ENE 6.9 mph - N/A   Overcast
5:41 PM 46.4 °F 42.4 °F 46.4 °F 100% 30.18 in 10.0 mi East 8.1 mph - N/A   Mostly Cloudy
5:56 PM 47.8 °F - 45.9 °F 93% 30.19 in 10.0 mi NE 8.1 mph - N/A   Mostly Cloudy
6:56 PM 46.9 °F - 45.9 °F 96% 30.19 in 10.0 mi East 3.5 mph - N/A   Overcast
7:56 PM 46.9 °F - 45.9 °F 96% 30.18 in 10.0 mi East 3.5 mph - N/A   Overcast
8:56 PM 45.9 °F - 45.9 °F 100% 30.18 in 10.0 mi Calm Calm - N/A   Partly Cloudy
9:56 PM 46.4 °F - 46.4 °F 100% 30.17 in 10.0 mi Calm Calm - N/A Rain Light Rain
10:56 PM 45.9 °F - 45.9 °F 100% 30.17 in 7.0 mi Calm Calm - 0.00 in Rain Light Rain
11:56 PM 45.9 °F - 45.9 °F 100% 30.17 in 7.0 mi Calm Calm - 0.03 in   Mostly Cloudy